Location: Unspecified
(0.0000°N, 0.0000°E)
Time: 22:43:37
(UTC+02:00)

USA 116 - Visible Passes

Search period start: 18 April 2014 00:00
Search period end: 28 April 2014 00:00
Orbit: 405 x 834 km, 97.9° (Epoch: 18 November)

Date Brightness Start Highest point End Pass type
(mag) Time Alt. Az. Time Alt. Az. Time Alt. Az.
18 Apr 5.1 05:48:29 10° SSE 05:53:21 52° ENE 05:58:31 10° N visible
19 Apr 4.4 06:03:11 10° SSE 06:08:13 80° ENE 06:13:35 10° N visible
20 Apr 4.3 06:18:04 10° S 06:23:07 68° WSW 06:28:27 10° NNW visible
21 Apr 7.3 05:00:24 10° E 05:02:31 12° ENE 05:04:39 10° NE visible
21 Apr 4.7 06:33:10 10° S 06:38:01 44° WSW 06:43:06 10° NNW visible
22 Apr 6.9 05:13:41 10° ESE 05:17:21 19° ENE 05:21:05 10° NNE visible
22 Apr 5.2 06:48:29 10° SSW 06:52:55 29° WSW 06:57:31 10° NW visible
23 Apr 6.3 05:27:43 10° SE 05:32:12 29° ENE 05:36:48 10° NNE visible
23 Apr 5.7 07:04:08 10° SSW 07:07:49 20° WSW 07:11:36 10° WNW visible
24 Apr 5.5 05:42:05 10° SSE 05:47:04 44° ENE 05:52:10 10° N visible
24 Apr 6.1 07:20:27 10° SW 07:22:42 13° WSW 07:25:00 10° WNW visible
25 Apr 4.8 05:56:42 10° SSE 06:01:57 67° ENE 06:07:18 10° N visible
26 Apr 4.4 06:11:31 10° S 06:16:50 82° WSW 06:22:14 10° NNW visible
27 Apr 7.5 04:55:30 10° E 04:56:10 10° ENE 04:56:51 10° ENE visible
27 Apr 4.5 06:26:32 10° S 06:31:43 54° WSW 06:36:58 10° NNW visible
